Date String (YYYY-MM-DD hh:mm:ss) UTC,Instrument flags,absolute air pressure of the measurement (hPa),sample flow rate (lpm),inlet stack bypass flow (lpm),air temperature of the measurement (°C),ambient temperature measured by the external sensor (°C),aerosol sample conditioner tube jacket temperature (°C),OPC LED temperature (°C),internal box temperature (°C),relative humidity of the measurement (%),span deviation,mass concentration of particles derived from Lorenz-Mie calculation of OPC scattering (μg/m³),mass concentration of particles derived from Lorenz-Mie calculation of OPC scattering (μg/m³),mass concentration of particles derived from Lorenz-Mie calculation of OPC scattering (μg/m³)
DateTimeUTC,F1_M11,P_M11,Q1_M11,Q2_M11,T1_M11,T2_M11,T3_M11,T4_M11,T5_M11,U1_M11,ZSPAN_M11,X0_M11,X2_M11,X1_M11
2023-07-09 03:00:00,SystemResetWarning,0833.0,5.01,000.00,031.0,026.7,000.0,039.5,031.4,33.3,-000.4,0016.68,0006.77,0005.12
2023-07-09 03:01:00,SystemResetWarning,0833.0,5.00,000.00,030.9,027.0,000.0,039.4,031.4,33.4,0000.0,0017.22,0006.82,0005.17
2023-07-09 03:02:00,SystemResetWarning,0833.2,5.00,000.00,030.9,027.3,000.0,039.4,031.4,33.4,0000.1,0017.44,0006.85,0005.21
2023-07-09 03:03:00,SystemResetWarning,0833.2,4.99,000.00,030.9,027.6,000.0,039.4,031.5,33.5,0000.3,0018.07,0006.92,0005.28
2023-07-09 03:04:00,SystemResetWarning,0833.2,4.99,000.00,030.8,027.8,000.0,039.4,031.5,33.4,0000.2,0018.52,0007.03,0005.34
2023-07-09 03:05:00,SystemResetWarning,0833.2,5.00,000.00,030.8,028.0,000.0,039.3,031.6,33.4,0000.3,0019.40,0007.05,0005.38
2023-07-09 03:06:00,SystemResetWarning,0833.2,5.01,000.00,030.8,028.2,000.0,039.3,031.6,33.3,0000.6,0019.29,0007.01,0005.42
2023-07-09 03:07:00,SystemResetWarning,0833.2,5.00,000.00,030.8,028.3,000.0,039.3,031.6,33.4,0000.7,0018.79,0007.07,0005.47
2023-07-09 03:08:00,SystemResetWarning,0833.3,4.99,000.00,030.8,028.4,000.0,039.3,031.6,33.4,0000.5,0019.18,0007.13,0005.51
2023-07-09 03:09:00,SystemResetWarning,0833.3,4.99,000.00,030.8,028.5,000.0,039.3,031.7,33.4,0000.3,0019.43,0007.20,0005.55
2023-07-09 03:10:00,SystemResetWarning,0833.4,5.01,000.00,030.8,028.5,000.0,039.3,031.7,33.4,0000.1,0019.74,0007.29,0005.58
2023-07-09 03:11:00,SystemResetWarning,0833.4,5.01,000.00,030.8,028.6,000.0,039.2,031.7,33.2,0000.3,0020.49,0007.31,0005.60
2023-07-09 03:12:00,SystemResetWarning,0833.4,5.00,000.00,030.8,028.6,000.0,039.2,031.7,33.0,0000.2,0019.78,0007.31,0005.61
2023-07-09 03:13:00,SystemResetWarning,0833.4,4.99,000.00,030.7,028.7,000.0,039.2,031.7,32.9,-000.1,0019.35,0007.28,0005.62
2023-07-09 03:14:00,SystemResetWarning,0833.4,5.02,000.00,030.8,028.7,000.0,039.2,031.8,32.9,-000.4,0019.33,0007.27,0005.62
2023-07-09 03:15:00,SystemResetWarning,0833.4,5.00,000.00,030.7,028.8,000.0,039.2,031.7,32.9,-000.5,0019.00,0007.24,0005.61
2023-07-09 03:16:00,SystemResetWarning,0833.4,4.99,000.00,030.7,028.8,000.0,039.2,031.8,32.9,-000.3,0018.57,0007.20,0005.60
2023-07-09 03:17:00,SystemResetWarning,0833.4,5.01,000.00,030.7,028.8,000.0,039.2,031.8,33.0,-000.7,0017.92,0007.19,0005.61
2023-07-09 03:18:00,SystemResetWarning,0833.4,5.00,000.00,030.7,028.9,000.0,039.2,031.8,33.0,-001.3,0018.53,0007.16,0005.60
2023-07-09 03:19:00,SystemResetWarning,0833.4,4.98,000.00,030.8,028.9,000.0,039.2,031.9,32.9,-001.9,0018.64,0007.11,0005.58
2023-07-09 03:20:00,SystemResetWarning,0833.5,5.00,000.00,030.7,028.9,000.0,039.2,031.9,32.9,-001.9,0018.41,0007.11,0005.57
2023-07-09 03:21:00,SystemResetWarning,0833.5,5.01,000.00,030.7,028.9,000.0,039.2,031.9,32.8,-002.0,0018.28,0007.11,0005.56
2023-07-09 03:22:00,SystemResetWarning,0833.5,5.01,000.00,030.7,029.0,000.0,039.2,031.9,32.7,-002.1,0017.67,0007.11,0005.54
2023-07-09 03:23:00,SystemResetWarning,0833.6,5.00,000.00,030.8,029.0,000.0,039.2,031.9,32.6,-002.5,0018.08,0007.08,0005.51
2023-07-09 03:24:00,SystemResetWarning,0833.6,5.00,000.00,030.8,029.0,000.0,039.2,031.9,32.5,-002.5,0018.11,0007.03,0005.47
2023-07-09 03:25:00,SystemResetWarning,0833.7,5.00,000.00,030.8,029.0,000.0,039.2,031.9,32.5,-002.4,0017.79,0006.98,0005.42
2023-07-09 03:26:00,SystemResetWarning,0833.7,4.99,000.00,030.8,028.1,000.0,039.1,031.9,32.6,-002.7,0017.73,0006.95,0005.39
2023-07-09 03:27:00,SystemResetWarning,0833.7,5.00,000.00,030.7,026.1,000.0,039.0,031.7,32.7,-002.8,0017.71,0006.88,0005.35
2023-07-09 03:28:00,SystemResetWarning,0833.7,5.00,000.00,030.6,025.4,000.0,038.9,031.4,32.9,-002.9,0018.30,0006.86,0005.34
2023-07-09 03:29:00,SystemResetWarning,0833.7,5.02,000.00,030.4,025.6,000.0,038.9,031.0,33.4,-002.6,0017.84,0006.87,0005.32
2023-07-09 03:30:00,SystemResetWarning,0833.7,5.01,000.00,030.2,026.0,000.0,038.9,031.1,33.7,-002.2,0017.54,0006.91,0005.32
2023-07-09 03:31:00,SystemResetWarning,0833.6,4.99,000.00,030.2,026.4,000.0,038.9,031.1,33.8,-002.0,0017.88,0006.89,0005.32
2023-07-09 03:32:00,SystemResetWarning,0833.7,5.00,000.00,030.2,026.8,000.0,038.9,031.2,33.7,-002.0,0017.90,0006.86,0005.30
2023-07-09 03:33:00,SystemResetWarning,0833.7,5.02,000.00,030.1,027.1,000.0,038.8,031.2,33.7,-001.6,0018.54,0006.83,0005.29
2023-07-09 03:34:00,SystemResetWarning,0833.8,4.99,000.00,030.1,027.4,000.0,038.8,031.3,33.7,-001.7,0018.04,0006.78,0005.30
2023-07-09 03:35:00,SystemResetWarning,0833.7,4.98,000.00,030.1,027.7,000.0,038.8,031.3,33.7,-002.0,0018.42,0006.82,0005.31
2023-07-09 03:36:00,SystemResetWarning,0833.8,5.01,000.00,030.1,027.9,000.0,038.8,031.4,33.7,-001.7,0018.32,0006.79,0005.32
2023-07-09 03:37:00,SystemResetWarning,0833.8,5.00,000.00,030.1,028.1,000.0,038.8,031.4,33.7,-001.6,0017.94,0006.73,0005.33
2023-07-09 03:38:00,SystemResetWarning,0833.8,4.98,000.00,030.1,028.2,000.0,038.8,031.4,33.6,-001.0,0017.25,0006.79,0005.37
2023-07-09 03:39:00,SystemResetWarning,0833.8,5.00,000.00,030.1,028.3,000.0,038.8,031.4,33.6,-000.7,0016.55,0006.80,0005.37
2023-07-09 03:40:00,SystemResetWarning,0833.9,5.01,000.00,030.2,028.4,000.0,038.7,031.5,33.5,-000.6,0016.54,0006.77,0005.37
2023-07-09 03:41:00,SystemResetWarning,0833.9,5.00,000.00,030.2,028.5,000.0,038.7,031.5,33.4,-000.2,0016.32,0006.70,0005.35
2023-07-09 03:42:00,SystemResetWarning,0833.9,4.99,000.00,030.2,028.5,000.0,038.7,031.5,33.4,-000.3,0015.49,0006.69,0005.33
2023-07-09 03:43:00,SystemResetWarning,0833.9,5.00,000.00,030.2,028.6,000.0,038.7,031.6,33.4,-000.5,0015.19,0006.67,0005.34
2023-07-09 03:44:00,SystemResetWarning,0833.9,5.00,000.00,030.2,028.7,000.0,038.7,031.6,33.3,-000.7,0014.46,0006.72,0005.35
2023-07-09 03:45:00,SystemResetWarning,0834.0,5.00,000.00,030.2,028.7,000.0,038.7,031.6,33.3,-000.6,0014.32,0006.74,0005.37
2023-07-09 03:46:00,SystemResetWarning,0834.0,5.00,000.00,030.2,028.8,000.0,038.8,031.6,33.3,-000.5,0014.52,0006.78,0005.40
2023-07-09 03:47:00,SystemResetWarning,0834.0,5.00,000.00,030.2,028.8,000.0,038.8,031.7,33.3,-000.8,0013.80,0006.82,0005.42
2023-07-09 03:48:00,SystemResetWarning,0834.0,5.00,000.00,030.3,028.8,000.0,038.8,031.7,33.2,-000.4,0013.76,0006.86,0005.44
2023-07-09 03:49:00,SystemResetWarning,0834.1,5.00,000.00,030.3,028.9,000.0,038.8,031.7,33.2,-000.4,0013.66,0006.88,0005.44
2023-07-09 03:50:00,SystemResetWarning,0834.1,5.00,000.00,030.3,028.7,000.0,038.7,031.7,33.2,-000.6,0014.03,0006.92,0005.44
2023-07-09 03:51:00,SystemResetWarning,0834.1,5.00,000.00,030.3,026.9,000.0,038.6,031.6,33.2,-000.5,0014.60,0006.90,0005.44
2023-07-09 03:52:00,SystemResetWarning,0834.1,5.00,000.00,030.2,025.5,000.0,038.5,031.3,33.3,-001.1,0015.20,0006.93,0005.46
2023-07-09 03:53:00,SystemResetWarning,0834.1,5.01,000.00,030.0,025.3,000.0,038.5,031.0,33.5,-000.8,0015.65,0006.97,0005.49
2023-07-09 03:54:00,SystemResetWarning,0834.1,5.01,000.00,029.9,025.6,000.0,038.5,030.8,33.9,-000.6,0015.84,0007.01,0005.53
2023-07-09 03:55:00,SystemResetWarning,0834.1,4.99,000.00,029.8,026.1,000.0,038.5,030.9,34.0,-000.2,0016.03,0006.98,0005.54
2023-07-09 03:56:00,SystemResetWarning,0834.2,5.00,000.00,029.8,026.5,000.0,038.5,031.0,34.1,-000.8,0016.32,0006.99,0005.56
2023-07-09 03:57:00,SystemResetWarning,0834.2,5.00,000.00,029.8,026.9,000.0,038.5,031.0,34.1,-000.8,0016.03,0007.05,0005.60
2023-07-09 03:58:00,SystemResetWarning,0834.2,5.00,000.00,029.8,027.2,000.0,038.5,031.1,34.1,-000.9,0016.00,0007.08,0005.63
2023-07-09 03:59:00,SystemResetWarning,0834.2,5.00,000.00,029.8,027.5,000.0,038.4,031.1,34.2,-000.7,0016.54,0007.15,0005.66
